Yuma MCAS, AZ

9:32 AM MST on May 26, 2018 (GMT -0700)
Yuma Marine Corps Air Station

Weather History for KNYL - May, 2014

Change the Weather History Date:

Saturday, May 3, 2014

  Actual Average Record
Temperature  
Mean Temperature 86 °F 78 °F  
Max Temperature 103 °F 91 °F 115 °F (1947)
Min Temperature 68 °F 64 °F 44 °F (1915)
Degree Days  
Heating Degree Days 0 0  
Month to date heating degree days 0 0  
Since 1 July heating degree days 370 686  
Cooling Degree Days 21 13  
Month to date cooling degree days 55 38  
Year to date cooling degree days 667 444  
Growing Degree Days 35 (Base 50)    
Moisture  
Dew Point 20 °F    
Average Humidity 13    
Maximum Humidity 22    
Minimum Humidity 3    
Precipitation  
Precipitation 0.00 in 0.00 in 0.03 in (1890)
Month to date precipitation 0.00 0.01  
Year to date precipitation 0.07 1.25  
Sea Level Pressure  
Sea Level Pressure 29.82 in    
Wind  
Wind Speed 5 mph (South)    
Max Wind Speed 14 mph    
Max Gust Speed 23 mph    
Visibility 10 miles    
Events      
T = Trace of Precipitation, MM = Missing Value Source: NWS Daily Summary

Daily Weather History Graph

Daily Weather History Graph

Search for Another Location

Airport or City:

Astronomy

May. 03, 2014 Rise Set
Actual Time 5:49 AM MST 7:21 PM MST
Civil Twilight 5:23 AM MST 7:47 PM MST
Nautical Twilight 4:51 AM MST 8:19 PM MST
Astronomical Twilight 4:18 AM MST 8:52 PM MST
Moon 9:25 AM MST (5/3) 11:28 PM MST (5/3)
Length of Visible Light 14h 24m
Length of Day
13h 32m
Waxing Crescent, 20% of the Moon is Illuminated
May 3
Waxing Crescent
May 6
First Quarter
May 14
Full
May 21
Last Quarter
May 28
New

Hourly Weather History & Observations

Time (MST) Temp. Dew Point Humidity Pressure Visibility Wind Dir Wind Speed Gust Speed Precip Events Conditions
12:57 AM 73.9 °F 30.0 °F 20% 29.84 in 10.0 mi SSE 5.8 mph - N/A   Clear
1:57 AM 75.0 °F 21.0 °F 13% 29.83 in 10.0 mi SE 3.5 mph - N/A   Clear
2:57 AM 71.1 °F 21.0 °F 15% 29.83 in 10.0 mi Calm Calm - N/A   Clear
3:57 AM 70.0 °F 25.0 °F 18% 29.83 in 10.0 mi Calm Calm - N/A   Clear
4:57 AM 69.1 °F 28.0 °F 22% 29.83 in 10.0 mi Calm Calm - N/A   Clear
5:57 AM 68.0 °F 25.0 °F 20% 29.84 in 10.0 mi Calm Calm - N/A   Clear
6:57 AM 73.0 °F 25.0 °F 17% 29.86 in 10.0 mi ENE 3.5 mph - N/A   Clear
7:57 AM 79.0 °F 26.1 °F 14% 29.87 in 10.0 mi NNE 3.5 mph - N/A   Clear
8:57 AM 86.0 °F 25.0 °F 11% 29.88 in 10.0 mi Calm Calm - N/A   Clear
9:57 AM 90.0 °F 19.9 °F 8% 29.88 in 10.0 mi Calm Calm - N/A   Clear
10:57 AM 95.0 °F 18.0 °F 6% 29.88 in 10.0 mi Variable 5.8 mph - N/A   Clear
11:57 AM 97.0 °F 17.1 °F 5% 29.87 in 10.0 mi West 6.9 mph - N/A   Clear
12:57 PM 100.9 °F 19.0 °F 5% 29.85 in 10.0 mi Calm Calm - N/A   Clear
1:57 PM 100.9 °F 9.0 °F 4% 29.83 in 10.0 mi SSE 11.5 mph 16.1 mph N/A   Clear
2:57 PM 102.0 °F 8.1 °F 4% 29.80 in 10.0 mi South 9.2 mph - N/A   Clear
3:57 PM 102.9 °F 12.9 °F 4% 29.78 in 10.0 mi South 11.5 mph 17.3 mph N/A   Clear
4:57 PM 102.0 °F 14.0 °F 4% 29.76 in 10.0 mi South 6.9 mph - N/A   Clear
5:57 PM 100.9 °F 16.0 °F 5% 29.75 in 10.0 mi South 10.4 mph - N/A   Clear
6:57 PM 95.0 °F 21.0 °F 7% 29.75 in 10.0 mi SSW 10.4 mph - N/A   Clear
7:57 PM 90.0 °F 18.0 °F 7% 29.77 in 10.0 mi SSW 9.2 mph - N/A   Clear
8:57 PM 84.9 °F 19.9 °F 9% 29.79 in 10.0 mi SSW 5.8 mph - N/A   Clear
9:57 PM 80.1 °F 27.0 °F 14% 29.81 in 10.0 mi Calm Calm - N/A   Clear
10:57 PM 79.0 °F 26.1 °F 14% 29.82 in 10.0 mi Calm Calm - N/A   Clear
11:57 PM 82.0 °F 16.0 °F 8% 29.81 in 10.0 mi SE 8.1 mph - N/A   Clear